Regional Weather Roundup
Issued by NWS Newport/Morehead, NC

Home | Current Version | Previous Version | Text Only | Print | Product List | Glossary On
Versions: 1 2 3 4 5 6 7 8 9 10 11 12 13 14 15 16 17 18 19 20 21 22 23 24 25 26 27 28 29 30 31 32 33 34 35 36 37 38 39 40 41 42 43 44 45 46 47 48 49 50
000
ASUS42 KMHX 300710
RWRMHX
WEATHER ROUNDUP FOR EASTERN NORTH CAROLINA
NATIONAL WEATHER SERVICE NEWPORT/MOREHEAD CITY NC
300 AM EDT SAT AUG 30 2014

NOTE: "FAIR" INDICATES FEW OR NO CLOUDS BELOW 12,000 FEET
WITH NO SIGNIFICANT WEATHER AND/OR OBSTRUCTIONS TO VISIBILITY

NCZ015>017-031-032-045>047-102-103-300800-
NORTH COAST

CITY           SKY/WX    TMP DP  RH WIND       PRES   REMARKS
EDENTON        CLOUDY    73  68  87 E3        30.18F
ELIZABETH CITY CLOUDY    74  66  76 E6        30.19F
KITTY HAWK     CLOUDY    75  67  76 E8        30.18S HAZE
MANTEO         CLOUDY    75  68  79 E9        30.19S

$$

NCZ045>047-081-094-103-104-300800-
CENTRAL COAST

CITY           SKY/WX    TMP DP  RH WIND       PRES   REMARKS
FRISCO         PTCLDY    75  75 100 E5        30.17S
SWANQUARTER      N/A     73 N/A N/A NE6       30.15S

$$

NCZ095-097-098-100-101-300800-
SOUTHERN COAST

CITY           SKY/WX    TMP DP  RH WIND       PRES   REMARKS
BEAUFORT       CLEAR     76  74  93 E3        30.16S
CEDAR ISLAND     N/A     75 N/A N/A SE1       30.21S
JACKSONVILLE   PTCLDY    75  72  90 N5        30.16S
NEWPORT        NOT AVBL
PINEY ISLAND   SUNNY     77  76  96 CALM      30.16S
WILMINGTON     CLEAR     73  71  93 CALM      30.16R


$$

NCZ011>013-027>030-043-044-078>080-089-090>093-098-300800-
COASTAL PLAIN

CITY           SKY/WX    TMP DP  RH WIND       PRES   REMARKS
AHOSKIE        PTCLDY    69  65  88 CALM      30.19F
CLINTON        CLEAR     72  72 100 CALM      30.17S FOG
ELIZABETHTOWN  CLEAR     72  71  97 CALM      30.16F
GOLDSBORO      CLEAR     71  70  98 E3        30.15F
GREENVILLE     CLEAR     70  68  94 CALM      30.19F
HAVELOCK       CLEAR     75  72  90 N5        30.18R
KENANSVILLE    CLEAR     72  72 100 CALM      30.18S FOG
KINSTON        CLEAR     71  69  95 CALM      30.18S
NEW BERN       CLEAR     74  70  87 CALM      30.18S
RICHLANDS      CLEAR     72  70  94 N3        30.17S
ROANOKE RAPIDS NOT AVBL
ROCKY MOUNT    CLEAR     70  67  90 CALM      30.18F
WASHINGTON     CLEAR     69  67  92 CALM      30.19S
WHITEVILLE     CLEAR     72  70  94 CALM      30.16S

$$

AMZ130-135-150-152-154-156-158-170-250-252-270-ANZ085-086-088-633-658-670-300800-
MARINE OBSERVATIONS

STATION/POSITION TIME  TEMP    WIND        PRES    WAVE   SWELL
                       AIR SEA DIR/SP/G            HT/PER HT/PER
                 (UTC) (F)     (DEG/KT/KT) (MB)    (FT/S) (FT/S)
CHESAPEAKE LIGHT 0600   74     110/ 10/ 11 1023.3
BUOY 44014       0700   76 76   70/  8/ 10 1022.3    2/ 8   2/ 8
DUCK             0700   76 78   80/ 12/ 14 1021.7
2E DUCK          0700                        N/A     3/ 8
OREGON INLET     0700   75 79   50/  9/ 12 1022.1
BUOY 44095       0700      76                N/A     3/ 8
20E OREGON INLET NOT AVBL
HATTERAS CG      0700   78 82   70/  2/  3 1022.0
DIAMOND BUOY     0700   80     300/  2/  2 1021.4    4/ 7   3/ 7
CAPE LOOKOUT     0600   80      60/  4/  4 1021.2
BEAUFORT LAB     0700   77 82   60/  3/  4 1020.8
30 SE NEW RIVER  0700   82 82  200/ 10/ 12 1021.4    3/ 8   3/ 8
5 SE WRIGHTSVILL 0700   78 81  180/  8/  8   N/A
BUOY 41002       0631   80 82  160/  6/  8 1021.7    3/ 8   3/ 8
BUOY 41004       0700   83 83  190/  2/  2 1019.8    3/ 8   3/ 8

$$


USA.gov is the U.S. government's official web portal to all federal, state and local government web resources and services.